Year,Month,Day,Hour,Minute,Value (Times are PST for windspeed in km/hr)
2010,08,26,00,00,0.00
2010,08,26,00,01,0.00
2010,08,26,00,02,0.00
2010,08,26,00,03,1.20
2010,08,26,00,04,0.00
2010,08,26,00,05,0.00
2010,08,26,00,06,0.60
2010,08,26,00,07,0.00
2010,08,26,00,08,0.10
2010,08,26,00,09,0.00
2010,08,26,00,10,0.00
2010,08,26,00,11,0.00
2010,08,26,00,12,0.20
2010,08,26,00,13,0.70
2010,08,26,00,14,0.00
2010,08,26,00,15,0.00
2010,08,26,00,16,0.00
2010,08,26,00,17,0.00
2010,08,26,00,18,0.00
2010,08,26,00,19,0.00
2010,08,26,00,20,0.00
2010,08,26,00,21,0.00
2010,08,26,00,22,0.00
2010,08,26,00,23,0.00
2010,08,26,00,24,0.00
2010,08,26,00,25,0.00
2010,08,26,00,26,0.00
2010,08,26,00,27,0.10
2010,08,26,00,28,0.50
2010,08,26,00,29,0.10
2010,08,26,00,30,0.00
2010,08,26,00,31,0.00
2010,08,26,00,32,0.00
2010,08,26,00,33,0.00
2010,08,26,00,34,0.00
2010,08,26,00,35,0.00
2010,08,26,00,36,0.00
2010,08,26,00,37,0.00
2010,08,26,00,38,0.00
2010,08,26,00,39,0.20
2010,08,26,00,40,0.60
2010,08,26,00,41,0.00
2010,08,26,00,42,0.20
2010,08,26,00,43,0.10
2010,08,26,00,44,0.00
2010,08,26,00,45,0.00
2010,08,26,00,46,0.00
2010,08,26,00,47,0.00
2010,08,26,00,48,0.00
2010,08,26,00,49,0.00
2010,08,26,00,50,0.00
2010,08,26,00,51,0.00
2010,08,26,00,52,0.00
2010,08,26,00,53,0.00
2010,08,26,00,54,0.00
2010,08,26,00,55,0.00
2010,08,26,00,56,0.00
2010,08,26,00,57,0.00
2010,08,26,00,58,0.00
2010,08,26,00,59,0.00
2010,08,26,01,00,0.00
2010,08,26,01,01,0.00
2010,08,26,01,02,0.00
2010,08,26,01,03,0.00
2010,08,26,01,04,0.00
2010,08,26,01,05,0.00
2010,08,26,01,06,0.00
2010,08,26,01,07,0.00
2010,08,26,01,08,0.10
2010,08,26,01,09,1.10
2010,08,26,01,10,0.40
2010,08,26,01,11,1.20
2010,08,26,01,12,0.60
2010,08,26,01,13,0.30
2010,08,26,01,14,0.80
2010,08,26,01,15,0.40
2010,08,26,01,16,0.30
2010,08,26,01,17,0.60
2010,08,26,01,18,1.10
2010,08,26,01,19,1.00
2010,08,26,01,20,1.20
2010,08,26,01,21,1.90
2010,08,26,01,22,2.30
2010,08,26,01,23,1.20
2010,08,26,01,24,0.30
2010,08,26,01,25,0.40
2010,08,26,01,26,2.30
2010,08,26,01,27,0.40
2010,08,26,01,28,1.70
2010,08,26,01,29,0.90
2010,08,26,01,30,1.80
2010,08,26,01,31,0.70
2010,08,26,01,32,0.10
2010,08,26,01,33,0.10
2010,08,26,01,34,0.40
2010,08,26,01,35,0.00
2010,08,26,01,36,0.90
2010,08,26,01,37,0.50
2010,08,26,01,38,0.20
2010,08,26,01,39,0.90
2010,08,26,01,40,1.60
2010,08,26,01,41,1.80
2010,08,26,01,42,0.60
2010,08,26,01,43,0.70
2010,08,26,01,44,3.00
2010,08,26,01,45,1.90
2010,08,26,01,46,1.20
2010,08,26,01,47,0.30
2010,08,26,01,48,1.00
2010,08,26,01,49,3.00
2010,08,26,01,50,0.10
2010,08,26,01,51,0.90
2010,08,26,01,52,1.00
2010,08,26,01,53,2.80
2010,08,26,01,54,1.40
2010,08,26,01,55,1.40
2010,08,26,01,56,2.80
2010,08,26,01,57,1.80
2010,08,26,01,58,1.20
2010,08,26,01,59,1.40
2010,08,26,02,00,0.90
2010,08,26,02,01,2.00
2010,08,26,02,02,2.10
2010,08,26,02,03,1.90
2010,08,26,02,04,2.10
2010,08,26,02,05,2.10
2010,08,26,02,06,0.70
2010,08,26,02,07,0.50
2010,08,26,02,08,0.60
2010,08,26,02,09,0.60
2010,08,26,02,10,1.40
2010,08,26,02,11,1.10
2010,08,26,02,12,0.20
2010,08,26,02,13,0.30
2010,08,26,02,14,1.00
2010,08,26,02,15,0.90
2010,08,26,02,16,0.90
2010,08,26,02,17,1.20
2010,08,26,02,18,1.00
2010,08,26,02,19,0.80
2010,08,26,02,20,0.10
2010,08,26,02,21,0.00
2010,08,26,02,22,0.00
2010,08,26,02,23,0.00
2010,08,26,02,24,0.30
2010,08,26,02,25,0.00
2010,08,26,02,26,0.00
2010,08,26,02,27,1.40
2010,08,26,02,28,1.70
2010,08,26,02,29,0.30
2010,08,26,02,30,0.90
2010,08,26,02,31,0.60
2010,08,26,02,32,0.20
2010,08,26,02,33,0.40
2010,08,26,02,34,0.80
2010,08,26,02,35,0.90
2010,08,26,02,36,0.90
2010,08,26,02,37,0.40
2010,08,26,02,38,0.50
2010,08,26,02,39,0.30
2010,08,26,02,40,0.00
2010,08,26,02,41,0.30
2010,08,26,02,42,0.10
2010,08,26,02,43,0.30
2010,08,26,02,44,0.30
2010,08,26,02,45,0.30
2010,08,26,02,46,0.20
2010,08,26,02,47,0.00
2010,08,26,02,48,0.90
2010,08,26,02,49,0.80
2010,08,26,02,50,0.30
2010,08,26,02,51,0.80
2010,08,26,02,52,1.00
2010,08,26,02,53,1.40
2010,08,26,02,54,1.10
2010,08,26,02,55,1.40
2010,08,26,02,56,1.80
2010,08,26,02,57,1.60
2010,08,26,02,58,0.90
2010,08,26,02,59,0.90
2010,08,26,03,00,0.30
2010,08,26,03,01,0.20
2010,08,26,03,02,0.40
2010,08,26,03,03,2.70
2010,08,26,03,04,1.10
2010,08,26,03,05,1.40
2010,08,26,03,06,0.20
2010,08,26,03,07,0.50
2010,08,26,03,08,1.00
2010,08,26,03,09,0.90
2010,08,26,03,10,0.50
2010,08,26,03,11,0.70
2010,08,26,03,12,0.10
2010,08,26,03,13,0.80
2010,08,26,03,14,1.40
2010,08,26,03,15,0.50
2010,08,26,03,16,0.80
2010,08,26,03,17,0.30
2010,08,26,03,18,0.00
2010,08,26,03,19,1.60
2010,08,26,03,20,1.10
2010,08,26,03,21,0.10
2010,08,26,03,22,0.90
2010,08,26,03,23,0.70
2010,08,26,03,24,0.30
2010,08,26,03,25,1.60
2010,08,26,03,26,0.30
2010,08,26,03,27,0.50
2010,08,26,03,28,1.20
2010,08,26,03,29,0.30
2010,08,26,03,30,0.30
2010,08,26,03,31,0.20
2010,08,26,03,32,0.50
2010,08,26,03,33,0.10
2010,08,26,03,34,1.00
2010,08,26,03,35,0.60
2010,08,26,03,36,0.20
2010,08,26,03,37,1.20
2010,08,26,03,38,0.40
2010,08,26,03,39,1.00
2010,08,26,03,40,1.60
2010,08,26,03,41,1.20
2010,08,26,03,42,2.00
2010,08,26,03,43,0.90
2010,08,26,03,44,0.60
2010,08,26,03,45,1.30
2010,08,26,03,46,1.20
2010,08,26,03,47,1.10
2010,08,26,03,48,2.60
2010,08,26,03,49,0.30
2010,08,26,03,50,2.70
2010,08,26,03,51,2.20
2010,08,26,03,52,1.20
2010,08,26,03,53,1.10
2010,08,26,03,54,1.80
2010,08,26,03,55,0.80
2010,08,26,03,56,0.30
2010,08,26,03,57,1.60
2010,08,26,03,58,0.80
2010,08,26,03,59,1.50
2010,08,26,04,00,3.70
2010,08,26,04,01,2.10
2010,08,26,04,02,0.70
2010,08,26,04,03,0.60
2010,08,26,04,04,2.50
2010,08,26,04,05,2.50
2010,08,26,04,06,1.00
2010,08,26,04,07,0.60
2010,08,26,04,08,0.50
2010,08,26,04,09,0.60
2010,08,26,04,10,0.70
2010,08,26,04,11,0.80
2010,08,26,04,12,1.00
2010,08,26,04,13,0.30
2010,08,26,04,14,0.20
2010,08,26,04,15,1.20
2010,08,26,04,16,0.90
2010,08,26,04,17,0.60
2010,08,26,04,18,0.60
2010,08,26,04,19,0.20
2010,08,26,04,20,0.60
2010,08,26,04,21,0.30
2010,08,26,04,22,0.00
2010,08,26,04,23,0.20
2010,08,26,04,24,0.40
2010,08,26,04,25,0.30
2010,08,26,04,26,0.30
2010,08,26,04,27,1.00
2010,08,26,04,28,0.90
2010,08,26,04,29,0.30
2010,08,26,04,30,0.10
2010,08,26,04,31,0.10
2010,08,26,04,32,1.90
2010,08,26,04,33,0.70
2010,08,26,04,34,1.10
2010,08,26,04,35,2.40
2010,08,26,04,36,0.10
2010,08,26,04,37,0.70
2010,08,26,04,38,0.80
2010,08,26,04,39,0.30
2010,08,26,04,40,0.00
2010,08,26,04,41,0.20
2010,08,26,04,42,0.00
2010,08,26,04,43,0.00
2010,08,26,04,44,0.50
2010,08,26,04,45,0.00
2010,08,26,04,46,0.00
2010,08,26,04,47,0.00
2010,08,26,04,48,0.00
2010,08,26,04,49,0.00
2010,08,26,04,50,0.00
2010,08,26,04,51,0.00
2010,08,26,04,52,0.00
2010,08,26,04,53,0.00
2010,08,26,04,54,0.00
2010,08,26,04,55,0.00
2010,08,26,04,56,0.00
2010,08,26,04,57,0.10
2010,08,26,04,58,0.10
2010,08,26,04,59,0.00
2010,08,26,05,00,0.20
2010,08,26,05,01,0.00
2010,08,26,05,02,0.00
2010,08,26,05,03,0.00
2010,08,26,05,04,0.70
2010,08,26,05,05,0.50
2010,08,26,05,06,0.30
2010,08,26,05,07,0.30
2010,08,26,05,08,0.00
2010,08,26,05,09,0.10
2010,08,26,05,10,0.00
2010,08,26,05,11,0.00
2010,08,26,05,12,0.30
2010,08,26,05,13,0.10
2010,08,26,05,14,0.00
2010,08,26,05,15,0.20
2010,08,26,05,16,0.00
2010,08,26,05,17,0.20
2010,08,26,05,18,0.00
2010,08,26,05,19,0.00
2010,08,26,05,20,0.20
2010,08,26,05,21,0.10
2010,08,26,05,22,0.20
2010,08,26,05,23,0.00
2010,08,26,05,24,0.30
2010,08,26,05,25,0.60
2010,08,26,05,26,0.00
2010,08,26,05,27,0.00
2010,08,26,05,28,0.50
2010,08,26,05,29,0.30
2010,08,26,05,30,0.30
2010,08,26,05,31,2.60
2010,08,26,05,32,3.10
2010,08,26,05,33,0.70
2010,08,26,05,34,0.30
2010,08,26,05,35,0.30
2010,08,26,05,36,0.50
2010,08,26,05,37,0.20
2010,08,26,05,38,0.10
2010,08,26,05,39,0.00
2010,08,26,05,40,0.20
2010,08,26,05,41,0.80
2010,08,26,05,42,0.40
2010,08,26,05,43,0.10
2010,08,26,05,44,0.30
2010,08,26,05,45,0.40
2010,08,26,05,46,0.60
2010,08,26,05,47,0.60
2010,08,26,05,48,0.00
2010,08,26,05,49,0.30
2010,08,26,05,50,1.00
2010,08,26,05,51,0.30
2010,08,26,05,52,0.50
2010,08,26,05,53,0.00
2010,08,26,05,54,0.00
2010,08,26,05,55,0.20
2010,08,26,05,56,0.30
2010,08,26,05,57,0.90
2010,08,26,05,58,1.00
2010,08,26,05,59,1.60
2010,08,26,06,00,0.30
2010,08,26,06,01,0.50
2010,08,26,06,02,0.30
2010,08,26,06,03,0.30
2010,08,26,06,04,0.50
2010,08,26,06,05,0.80
2010,08,26,06,06,1.00
2010,08,26,06,07,0.00
2010,08,26,06,08,0.40
2010,08,26,06,09,0.00
2010,08,26,06,10,0.00
2010,08,26,06,11,0.50
2010,08,26,06,12,0.10
2010,08,26,06,13,0.00
2010,08,26,06,14,0.00
2010,08,26,06,15,0.30
2010,08,26,06,16,0.20
2010,08,26,06,17,0.20
2010,08,26,06,18,0.00
2010,08,26,06,19,0.40
2010,08,26,06,20,0.30
2010,08,26,06,21,0.50
2010,08,26,06,22,0.40
2010,08,26,06,23,0.40
2010,08,26,06,24,0.10
2010,08,26,06,25,0.50
2010,08,26,06,26,0.10
2010,08,26,06,27,0.20
2010,08,26,06,28,0.60
2010,08,26,06,29,0.10
2010,08,26,06,30,0.00
2010,08,26,06,31,0.30
2010,08,26,06,32,0.60
2010,08,26,06,33,0.30
2010,08,26,06,34,0.10
2010,08,26,06,35,0.90
2010,08,26,06,36,0.60
2010,08,26,06,37,0.10
2010,08,26,06,38,0.40
2010,08,26,06,39,0.90
2010,08,26,06,40,0.50
2010,08,26,06,41,1.30
2010,08,26,06,42,1.20
2010,08,26,06,43,1.20
2010,08,26,06,44,1.80
2010,08,26,06,45,3.30
2010,08,26,06,46,1.90
2010,08,26,06,47,1.70
2010,08,26,06,48,2.80
2010,08,26,06,49,6.30
2010,08,26,06,50,2.50
2010,08,26,06,51,4.50
2010,08,26,06,52,2.70
2010,08,26,06,53,0.60
2010,08,26,06,54,3.10
2010,08,26,06,55,2.80
2010,08,26,06,56,1.40
2010,08,26,06,57,1.40
2010,08,26,06,58,2.70
2010,08,26,06,59,4.60
2010,08,26,07,00,2.30
2010,08,26,07,01,3.40
2010,08,26,07,02,2.00
2010,08,26,07,03,4.70
2010,08,26,07,04,3.50
2010,08,26,07,05,2.10
2010,08,26,07,06,1.00
2010,08,26,07,07,0.70
2010,08,26,07,08,0.50
2010,08,26,07,09,1.00
2010,08,26,07,10,3.70
2010,08,26,07,11,2.80
2010,08,26,07,12,3.60
2010,08,26,07,13,5.10
2010,08,26,07,14,4.30
2010,08,26,07,15,3.10
2010,08,26,07,16,1.70
2010,08,26,07,17,3.50
2010,08,26,07,18,2.60
2010,08,26,07,19,5.60
2010,08,26,07,20,2.90
2010,08,26,07,21,8.00
2010,08,26,07,22,2.10
2010,08,26,07,23,1.20
2010,08,26,07,24,2.00
2010,08,26,07,25,5.30
2010,08,26,07,26,5.60
2010,08,26,07,27,1.70
2010,08,26,07,28,1.30
2010,08,26,07,29,2.10
2010,08,26,07,30,7.90
2010,08,26,07,31,5.80
2010,08,26,07,32,3.70
2010,08,26,07,33,3.60
2010,08,26,07,34,0.90
2010,08,26,07,35,1.50
2010,08,26,07,36,7.20
2010,08,26,07,37,2.70
2010,08,26,07,38,6.00
2010,08,26,07,39,6.50
2010,08,26,07,40,6.40
2010,08,26,07,41,4.30
2010,08,26,07,42,2.50
2010,08,26,07,43,4.20
2010,08,26,07,44,5.00
2010,08,26,07,45,5.20
2010,08,26,07,46,3.50
2010,08,26,07,47,5.10
2010,08,26,07,48,3.80
2010,08,26,07,49,3.10
2010,08,26,07,50,3.00
2010,08,26,07,51,3.50
2010,08,26,07,52,6.30
2010,08,26,07,53,2.50
2010,08,26,07,54,4.00
2010,08,26,07,55,2.50
2010,08,26,07,56,5.80
2010,08,26,07,57,2.70
2010,08,26,07,58,4.70
2010,08,26,07,59,9.70
2010,08,26,08,00,11.30
2010,08,26,08,01,9.00
2010,08,26,08,02,4.90
2010,08,26,08,03,3.50
2010,08,26,08,04,6.40
2010,08,26,08,05,5.80
2010,08,26,08,06,4.30
2010,08,26,08,07,13.00
2010,08,26,08,08,5.70
2010,08,26,08,09,4.70
2010,08,26,08,10,6.00
2010,08,26,08,11,3.50
2010,08,26,08,12,3.00
2010,08,26,08,13,6.00
2010,08,26,08,14,9.10
2010,08,26,08,15,11.70
2010,08,26,08,16,15.60
2010,08,26,08,17,16.10
2010,08,26,08,18,16.10
2010,08,26,08,19,16.30
2010,08,26,08,20,6.40
2010,08,26,08,21,8.30
2010,08,26,08,22,6.90
2010,08,26,08,23,4.20
2010,08,26,08,24,11.30
2010,08,26,08,25,2.90
2010,08,26,08,26,4.20
2010,08,26,08,27,1.10
2010,08,26,08,28,7.40
2010,08,26,08,29,7.50
2010,08,26,08,30,2.60
2010,08,26,08,31,7.70
2010,08,26,08,32,10.90
2010,08,26,08,33,14.40
2010,08,26,08,34,10.80
2010,08,26,08,35,4.30
2010,08,26,08,36,12.80
2010,08,26,08,37,13.00
2010,08,26,08,38,11.80
2010,08,26,08,39,9.70
2010,08,26,08,40,12.50
2010,08,26,08,41,10.20
2010,08,26,08,42,6.20
2010,08,26,08,43,11.30
2010,08,26,08,44,11.70
2010,08,26,08,45,6.10
2010,08,26,08,46,6.10
2010,08,26,08,47,8.10
2010,08,26,08,48,8.60
2010,08,26,08,49,13.40
2010,08,26,08,50,7.30
2010,08,26,08,51,10.10
2010,08,26,08,52,12.40
2010,08,26,08,53,13.70
2010,08,26,08,54,7.40
2010,08,26,08,55,12.80
2010,08,26,08,56,7.00
2010,08,26,08,57,10.50
2010,08,26,08,58,12.70
2010,08,26,08,59,8.50
2010,08,26,09,00,11.60
2010,08,26,09,01,12.00
2010,08,26,09,02,6.90
2010,08,26,09,03,7.50
2010,08,26,09,04,10.20
2010,08,26,09,05,11.30
2010,08,26,09,06,13.80
2010,08,26,09,07,11.20
2010,08,26,09,08,15.30
2010,08,26,09,09,14.00
2010,08,26,09,10,9.70
2010,08,26,09,11,9.60
2010,08,26,09,12,10.40
2010,08,26,09,13,11.80
2010,08,26,09,14,10.80
2010,08,26,09,15,6.10
2010,08,26,09,16,5.80
2010,08,26,09,17,11.70
2010,08,26,09,18,8.00
2010,08,26,09,19,10.90
2010,08,26,09,20,9.00
2010,08,26,09,21,9.30
2010,08,26,09,22,11.90
2010,08,26,09,23,5.60
2010,08,26,09,24,6.10
2010,08,26,09,25,11.70
2010,08,26,09,26,10.50
2010,08,26,09,27,11.30
2010,08,26,09,28,9.20
2010,08,26,09,29,3.10
2010,08,26,09,30,9.30
2010,08,26,09,31,5.80
2010,08,26,09,32,5.10
2010,08,26,09,33,9.20
2010,08,26,09,34,3.60
2010,08,26,09,35,5.40
2010,08,26,09,36,3.70
2010,08,26,09,37,7.40
2010,08,26,09,38,6.90
2010,08,26,09,39,6.00
2010,08,26,09,40,4.60
2010,08,26,09,41,3.90
2010,08,26,09,42,1.50
2010,08,26,09,43,3.10
2010,08,26,09,44,4.30
2010,08,26,09,45,2.00
2010,08,26,09,46,4.20
2010,08,26,09,47,1.80
2010,08,26,09,48,4.70
2010,08,26,09,49,4.60
2010,08,26,09,50,1.40
2010,08,26,09,51,1.20
2010,08,26,09,52,5.80
2010,08,26,09,53,5.10
2010,08,26,09,54,7.10
2010,08,26,09,55,4.20
2010,08,26,09,56,5.40
2010,08,26,09,57,3.90
2010,08,26,09,58,3.50
2010,08,26,09,59,3.60
2010,08,26,10,00,6.50
2010,08,26,10,01,3.10
2010,08,26,10,02,3.30
2010,08,26,10,03,8.00
2010,08,26,10,04,8.00
2010,08,26,10,05,8.40
2010,08,26,10,06,8.60
2010,08,26,10,07,6.60
2010,08,26,10,08,6.80
2010,08,26,10,09,8.40
2010,08,26,10,10,4.20
2010,08,26,10,11,9.70
2010,08,26,10,12,6.40
2010,08,26,10,13,10.50
2010,08,26,10,14,13.60
2010,08,26,10,15,10.80
2010,08,26,10,16,8.40
2010,08,26,10,17,11.10
2010,08,26,10,18,7.70
2010,08,26,10,19,6.70
2010,08,26,10,20,3.20
2010,08,26,10,21,7.30
2010,08,26,10,22,12.10
2010,08,26,10,23,7.30
2010,08,26,10,24,2.80
2010,08,26,10,25,9.10
2010,08,26,10,26,9.20
2010,08,26,10,27,9.80
2010,08,26,10,28,6.50
2010,08,26,10,29,6.00
2010,08,26,10,30,9.20
2010,08,26,10,31,7.80
2010,08,26,10,32,2.20
2010,08,26,10,33,10.40
2010,08,26,10,34,9.90
2010,08,26,10,35,8.90
2010,08,26,10,36,7.30
2010,08,26,10,37,6.90
2010,08,26,10,38,3.60
2010,08,26,10,39,12.60
2010,08,26,10,40,5.40
2010,08,26,10,41,6.60
2010,08,26,10,42,7.40
2010,08,26,10,43,6.10
2010,08,26,10,44,9.50
2010,08,26,10,45,10.60
2010,08,26,10,46,16.00
2010,08,26,10,47,11.90
2010,08,26,10,48,12.30
2010,08,26,10,49,9.40
2010,08,26,10,50,17.00
2010,08,26,10,51,13.00
2010,08,26,10,52,9.10
2010,08,26,10,53,12.10
2010,08,26,10,54,8.80
2010,08,26,10,55,12.20
2010,08,26,10,56,9.50
2010,08,26,10,57,10.60
2010,08,26,10,58,8.60
2010,08,26,10,59,10.10
2010,08,26,11,00,13.20
2010,08,26,11,01,10.40
2010,08,26,11,02,6.20
2010,08,26,11,03,14.60
2010,08,26,11,04,19.70
2010,08,26,11,05,11.30
2010,08,26,11,06,11.20
2010,08,26,11,07,12.60
2010,08,26,11,08,13.90
2010,08,26,11,09,11.70
2010,08,26,11,10,12.30
2010,08,26,11,11,7.10
2010,08,26,11,12,6.50
2010,08,26,11,13,13.70
2010,08,26,11,14,7.50
2010,08,26,11,15,8.30
2010,08,26,11,16,11.60
2010,08,26,11,17,6.50
2010,08,26,11,18,4.50
2010,08,26,11,19,8.00
2010,08,26,11,20,8.00
2010,08,26,11,21,10.30
2010,08,26,11,22,9.70
2010,08,26,11,23,14.70
2010,08,26,11,24,15.50
2010,08,26,11,25,14.30
2010,08,26,11,26,9.90
2010,08,26,11,27,14.80
2010,08,26,11,28,18.90
2010,08,26,11,29,14.80
2010,08,26,11,30,8.80
2010,08,26,11,31,11.80
2010,08,26,11,32,9.70
2010,08,26,11,33,13.10
2010,08,26,11,34,13.80
2010,08,26,11,35,9.60
2010,08,26,11,36,11.00
2010,08,26,11,37,9.70
2010,08,26,11,38,9.20
2010,08,26,11,39,9.80
2010,08,26,11,40,12.10
2010,08,26,11,41,12.20
2010,08,26,11,42,10.20
2010,08,26,11,43,12.10
2010,08,26,11,44,12.70
2010,08,26,11,45,11.20
2010,08,26,11,46,6.20
2010,08,26,11,47,9.30
2010,08,26,11,48,19.50
2010,08,26,11,49,10.90
2010,08,26,11,50,14.00
2010,08,26,11,51,10.40
2010,08,26,11,52,6.80
2010,08,26,11,53,9.00
2010,08,26,11,54,12.20
2010,08,26,11,55,10.60
2010,08,26,11,56,14.00
2010,08,26,11,57,8.60
2010,08,26,11,58,12.30
2010,08,26,11,59,15.60
2010,08,26,12,00,11.80
2010,08,26,12,01,11.80
2010,08,26,12,02,10.80
2010,08,26,12,03,5.50
2010,08,26,12,04,7.00
2010,08,26,12,05,10.20
2010,08,26,12,06,7.20
2010,08,26,12,07,15.80
2010,08,26,12,08,12.00
2010,08,26,12,09,6.90
2010,08,26,12,10,10.10
2010,08,26,12,11,9.30
2010,08,26,12,12,6.60
2010,08,26,12,13,8.60
2010,08,26,12,14,4.40
2010,08,26,12,15,8.50
2010,08,26,12,16,10.90
2010,08,26,12,17,16.60
2010,08,26,12,18,8.90
2010,08,26,12,19,14.90
2010,08,26,12,20,8.40
2010,08,26,12,21,7.60
2010,08,26,12,22,13.70
2010,08,26,12,23,12.90
2010,08,26,12,24,18.80
2010,08,26,12,25,11.40
2010,08,26,12,26,16.90
2010,08,26,12,27,7.20
2010,08,26,12,28,8.80
2010,08,26,12,29,8.90
2010,08,26,12,30,13.40
2010,08,26,12,31,17.70
2010,08,26,12,32,15.20
2010,08,26,12,33,7.70
2010,08,26,12,34,7.50
2010,08,26,12,35,9.70
2010,08,26,12,36,10.50
2010,08,26,12,37,11.00
2010,08,26,12,38,14.80
2010,08,26,12,39,13.80
2010,08,26,12,40,13.60
2010,08,26,12,41,7.80
2010,08,26,12,42,15.20
2010,08,26,12,43,13.80
2010,08,26,12,44,11.90
2010,08,26,12,45,10.00
2010,08,26,12,46,7.10
2010,08,26,12,47,10.80
2010,08,26,12,48,6.20
2010,08,26,12,49,9.00
2010,08,26,12,50,14.10
2010,08,26,12,51,15.60
2010,08,26,12,52,15.60
2010,08,26,12,53,15.10
2010,08,26,12,54,16.90
2010,08,26,12,55,9.10
2010,08,26,12,56,9.80
2010,08,26,12,57,11.80
2010,08,26,12,58,6.60
2010,08,26,12,59,14.90
2010,08,26,13,00,10.80
2010,08,26,13,01,11.30
2010,08,26,13,02,17.10
2010,08,26,13,03,15.90
2010,08,26,13,04,17.50
2010,08,26,13,05,13.40
2010,08,26,13,06,16.80
2010,08,26,13,07,13.40
2010,08,26,13,08,16.90
2010,08,26,13,09,16.30
2010,08,26,13,10,11.60
2010,08,26,13,11,15.30
2010,08,26,13,12,9.10
2010,08,26,13,13,13.30
2010,08,26,13,14,12.80
2010,08,26,13,15,13.80
2010,08,26,13,16,6.80
2010,08,26,13,17,13.80
2010,08,26,13,18,15.30
2010,08,26,13,19,10.80
2010,08,26,13,20,13.90
2010,08,26,13,21,13.10
2010,08,26,13,22,8.50
2010,08,26,13,23,16.30
2010,08,26,13,24,14.50
2010,08,26,13,25,13.10
2010,08,26,13,26,15.30
2010,08,26,13,27,16.50
2010,08,26,13,28,17.20
2010,08,26,13,29,9.40
2010,08,26,13,30,13.00
2010,08,26,13,31,18.40
2010,08,26,13,32,18.60
2010,08,26,13,33,14.10
2010,08,26,13,34,13.00
2010,08,26,13,35,13.30
2010,08,26,13,36,13.80
2010,08,26,13,37,15.80
2010,08,26,13,38,18.30
2010,08,26,13,39,16.60
2010,08,26,13,40,17.60
2010,08,26,13,41,17.50
2010,08,26,13,42,17.10
2010,08,26,13,43,15.80
2010,08,26,13,44,13.00
2010,08,26,13,45,19.10
2010,08,26,13,46,9.70
2010,08,26,13,47,12.60
2010,08,26,13,48,18.40
2010,08,26,13,49,16.50
2010,08,26,13,50,15.20
2010,08,26,13,51,19.50
2010,08,26,13,52,8.80
2010,08,26,13,53,17.80
2010,08,26,13,54,14.50
2010,08,26,13,55,11.40
2010,08,26,13,56,17.20
2010,08,26,13,57,16.80
2010,08,26,13,58,19.00
2010,08,26,13,59,10.10
2010,08,26,14,00,9.50
2010,08,26,14,01,14.20
2010,08,26,14,02,10.80
2010,08,26,14,03,11.60
2010,08,26,14,04,10.10
2010,08,26,14,05,18.30
2010,08,26,14,06,13.70
2010,08,26,14,07,18.20
2010,08,26,14,08,21.30
2010,08,26,14,09,23.10
2010,08,26,14,10,17.60
2010,08,26,14,11,18.50
2010,08,26,14,12,16.70
2010,08,26,14,13,14.90
2010,08,26,14,14,16.80
2010,08,26,14,15,15.90
2010,08,26,14,16,12.60
2010,08,26,14,17,13.90
2010,08,26,14,18,18.10
2010,08,26,14,19,18.70
2010,08,26,14,20,11.70
2010,08,26,14,21,13.60
2010,08,26,14,22,17.40
2010,08,26,14,23,22.80
2010,08,26,14,24,14.40
2010,08,26,14,25,14.40
2010,08,26,14,26,14.50
2010,08,26,14,27,19.10
2010,08,26,14,28,17.50
2010,08,26,14,29,14.90
2010,08,26,14,30,9.70
2010,08,26,14,31,14.80
2010,08,26,14,32,16.60
2010,08,26,14,33,18.80
2010,08,26,14,34,15.70
2010,08,26,14,35,19.20
2010,08,26,14,36,18.60
2010,08,26,14,37,9.80
2010,08,26,14,38,17.10
2010,08,26,14,39,19.20
2010,08,26,14,40,18.00
2010,08,26,14,41,20.30
2010,08,26,14,42,21.00
2010,08,26,14,43,15.70
2010,08,26,14,44,13.30
2010,08,26,14,45,15.90
2010,08,26,14,46,11.80
2010,08,26,14,47,14.90
2010,08,26,14,48,14.60
2010,08,26,14,49,19.10
2010,08,26,14,50,18.70
2010,08,26,14,51,18.60
2010,08,26,14,52,20.20
2010,08,26,14,53,12.60
2010,08,26,14,54,18.60
2010,08,26,14,55,16.90
2010,08,26,14,56,11.60
2010,08,26,14,57,14.60
2010,08,26,14,58,15.80
2010,08,26,14,59,15.90
2010,08,26,15,00,21.30
2010,08,26,15,01,20.50
2010,08,26,15,02,22.20
2010,08,26,15,03,13.40
2010,08,26,15,04,12.20
2010,08,26,15,05,11.80
2010,08,26,15,06,9.40
2010,08,26,15,07,12.10
2010,08,26,15,08,9.00
2010,08,26,15,09,12.80
2010,08,26,15,10,16.90
2010,08,26,15,11,21.70
2010,08,26,15,12,13.10
2010,08,26,15,13,19.10
2010,08,26,15,14,10.90
2010,08,26,15,15,10.70
2010,08,26,15,16,8.50
2010,08,26,15,17,13.20
2010,08,26,15,18,8.20
2010,08,26,15,19,6.90
2010,08,26,15,20,5.80
2010,08,26,15,21,13.70
2010,08,26,15,22,13.60
2010,08,26,15,23,15.40
2010,08,26,15,24,17.20
2010,08,26,15,25,18.40
2010,08,26,15,26,17.00
2010,08,26,15,27,12.20
2010,08,26,15,28,15.20
2010,08,26,15,29,15.70
2010,08,26,15,30,11.80
2010,08,26,15,31,12.00
2010,08,26,15,32,18.50
2010,08,26,15,33,12.00
2010,08,26,15,34,15.50
2010,08,26,15,35,13.00
2010,08,26,15,36,20.10
2010,08,26,15,37,18.80
2010,08,26,15,38,16.30
2010,08,26,15,39,11.20
2010,08,26,15,40,18.50
2010,08,26,15,41,10.70
2010,08,26,15,42,20.00
2010,08,26,15,43,13.20
2010,08,26,15,44,16.80
2010,08,26,15,45,16.30
2010,08,26,15,46,12.30
2010,08,26,15,47,17.70
2010,08,26,15,48,13.70
2010,08,26,15,49,12.80
2010,08,26,15,50,15.80
2010,08,26,15,51,15.90
2010,08,26,15,52,9.70
2010,08,26,15,53,14.30
2010,08,26,15,54,11.70
2010,08,26,15,55,10.30
2010,08,26,15,56,8.50
2010,08,26,15,57,9.30
2010,08,26,15,58,12.00
2010,08,26,15,59,12.40
2010,08,26,16,00,17.50
2010,08,26,16,01,13.90
2010,08,26,16,02,11.00
2010,08,26,16,03,16.90
2010,08,26,16,04,12.60
2010,08,26,16,05,13.30
2010,08,26,16,06,11.70
2010,08,26,16,07,8.40
2010,08,26,16,08,16.90
2010,08,26,16,09,12.10
2010,08,26,16,10,8.00
2010,08,26,16,11,10.00
2010,08,26,16,12,14.80
2010,08,26,16,13,20.70
2010,08,26,16,14,10.80
2010,08,26,16,15,13.80
2010,08,26,16,16,11.70
2010,08,26,16,17,10.60
2010,08,26,16,18,10.60
2010,08,26,16,19,8.10
2010,08,26,16,20,12.60
2010,08,26,16,21,11.60
2010,08,26,16,22,15.90
2010,08,26,16,23,17.80
2010,08,26,16,24,15.10
2010,08,26,16,25,10.90
2010,08,26,16,26,10.90
2010,08,26,16,27,11.50
2010,08,26,16,28,17.80
2010,08,26,16,29,12.20
2010,08,26,16,30,15.50
2010,08,26,16,31,9.70
2010,08,26,16,32,13.60
2010,08,26,16,33,10.40
2010,08,26,16,34,10.30
2010,08,26,16,35,15.20
2010,08,26,16,36,10.50
2010,08,26,16,37,15.40
2010,08,26,16,38,17.10
2010,08,26,16,39,16.10
2010,08,26,16,40,15.20
2010,08,26,16,41,11.20
2010,08,26,16,42,9.00
2010,08,26,16,43,14.70
2010,08,26,16,44,16.40
2010,08,26,16,45,12.70
2010,08,26,16,46,11.80
2010,08,26,16,47,7.50
2010,08,26,16,48,10.40
2010,08,26,16,49,18.20
2010,08,26,16,50,11.00
2010,08,26,16,51,17.00
2010,08,26,16,52,17.30
2010,08,26,16,53,15.20
2010,08,26,16,54,18.50
2010,08,26,16,55,15.50
2010,08,26,16,56,14.40
2010,08,26,16,57,18.20
2010,08,26,16,58,6.50
2010,08,26,16,59,12.90
2010,08,26,17,00,16.00
2010,08,26,17,01,9.30
2010,08,26,17,02,10.30
2010,08,26,17,03,16.90
2010,08,26,17,04,16.40
2010,08,26,17,05,10.30
2010,08,26,17,06,10.00
2010,08,26,17,07,11.80
2010,08,26,17,08,17.40
2010,08,26,17,09,10.70
2010,08,26,17,10,12.70
2010,08,26,17,11,8.60
2010,08,26,17,12,13.20
2010,08,26,17,13,13.40
2010,08,26,17,14,18.60
2010,08,26,17,15,19.90
2010,08,26,17,16,15.20
2010,08,26,17,17,16.70
2010,08,26,17,18,12.90
2010,08,26,17,19,18.90
2010,08,26,17,20,18.00
2010,08,26,17,21,13.90
2010,08,26,17,22,15.60
2010,08,26,17,23,14.20
2010,08,26,17,24,13.60
2010,08,26,17,25,21.60
2010,08,26,17,26,14.60
2010,08,26,17,27,21.00
2010,08,26,17,28,12.80
2010,08,26,17,29,15.40
2010,08,26,17,30,15.90
2010,08,26,17,31,13.30
2010,08,26,17,32,16.30
2010,08,26,17,33,17.20
2010,08,26,17,34,16.90
2010,08,26,17,35,11.20
2010,08,26,17,36,13.80
2010,08,26,17,37,10.00
2010,08,26,17,38,17.20
2010,08,26,17,39,16.00
2010,08,26,17,40,18.40
2010,08,26,17,41,12.20
2010,08,26,17,42,17.50
2010,08,26,17,43,13.50
2010,08,26,17,44,15.40
2010,08,26,17,45,12.10
2010,08,26,17,46,14.20
2010,08,26,17,47,20.60
2010,08,26,17,48,16.80